QPF
0.00 0.00 0.00 0.00 0.00 0.01 0.01 0.01 0.01 0.01 0.01 0.01 0.02 0.04 0.06 0.06 0.04 0.04 0.03 0.06 0.09 0.10 0.09 0.08 0.06 0.04 0.04 0.04 0.03 0.03 0.02 0.03 0.03 0.02 0.02 0.02 0.03 0.04 0.06 0.07 0.07 0.08 0.17
0.00 0.00 0.00 0.00 0.01 0.01 0.01 0.01 0.01 0.01 0.01 0.02 0.04 0.05 0.04 0.04 0.05 0.03 0.02 0.03 0.05 0.07 0.08 0.08 0.08 0.07 0.05 0.04 0.03 0.03 0.03 0.02 0.02 0.02 0.03 0.04 0.05 0.04 0.05 0.05 0.05 0.05 0.08
0.00 0.00 0.00 0.00 0.01 0.01 0.02 0.01 0.01 0.02 0.01 0.02 0.04 0.05 0.05 0.05 0.05 0.04 0.04 0.03 0.02 0.04 0.05 0.06 0.08 0.07 0.06 0.06 0.05 0.04 0.04 0.03 0.02 0.02 0.02 0.06 0.10 0.06 0.05 0.04 0.04 0.04 0.05
0.00 0.00 0.00 0.01 0.01 0.01 0.01 0.01 0.01 0.02 0.01 0.01 0.03 0.05 0.06 0.04 0.05 0.06 0.05 0.03 0.02 0.01 0.02 0.04 0.04 0.04 0.04 0.05 0.05 0.05 0.05 0.04 0.04 0.03 0.03 0.06 0.09 0.07 0.05 0.04 0.04 0.07 0.08
0.00 0.00 0.01 0.01 0.01 0.01 0.02 0.01 0.01 0.01 0.02 0.01 0.02 0.04 0.04 0.06 0.06 0.06 0.07 0.05 0.03 0.02 0.01 0.02 0.02 0.02 0.03 0.04 0.04 0.04 0.06 0.07 0.08 0.06 0.04 0.06 0.07 0.06 0.05 0.04 0.05 0.10 0.16
0.00 0.00 0.00 0.01 0.00 0.01 0.01 0.02 0.01 0.01 0.01 0.01 0.02 0.02 0.03 0.04 0.05 0.10 0.12 0.07 0.04 0.03 0.02 0.01 0.01 0.01 0.02 0.03 0.03 0.04 0.05 0.07 0.07 0.05 0.05 0.06 0.07 0.06 0.05 0.06 0.08 0.15 0.21
0.00 0.00 0.00 0.00 0.00 0.00 0.01 0.01 0.01 0.02 0.01 0.01 0.01 0.02 0.04 0.05 0.06 0.09 0.11 0.07 0.06 0.04 0.02 0.01 0.01 0.00 0.01 0.01 0.02 0.03 0.04 0.05 0.04 0.04 0.07 0.07 0.07 0.06 0.08 0.08 0.09 0.12 0.13
0.00 0.00 0.00 0.00 0.00 0.01 0.01 0.00 0.00 0.01 0.01 0.01 0.00 0.01 0.02 0.04 0.09 0.10 0.08 0.07 0.05 0.04 0.03 0.03 0.02 0.02 0.01 0.01 0.00 0.01 0.02 0.04 0.04 0.04 0.07 0.11 0.12 0.09 0.08 0.07 0.06 0.07 0.09
0.00 0.00 0.00 0.00 0.00 0.01 0.01 0.01 0.01 0.01 0.01 0.00 0.01 0.01 0.01 0.02 0.05 0.06 0.06 0.06 0.05 0.05 0.04 0.04 0.05 0.03 0.01 0.01 0.01 0.00 0.01 0.01 0.03 0.04 0.05 0.09 0.11 0.09 0.07 0.06 0.06 0.06 0.07
0.00 0.00 0.00 0.00 0.01 0.01 0.01 0.02 0.01 0.01 0.01 0.01 0.01 0.01 0.01 0.01 0.01 0.02 0.03 0.04 0.04 0.05 0.05 0.04 0.07 0.05 0.02 0.01 0.01 0.01 0.00 0.01 0.01 0.03 0.05 0.05 0.05 0.05 0.04 0.04 0.03 0.04 0.04
0.00 0.00 0.00 0.00 0.00 0.01 0.01 0.02 0.01 0.01 0.01 0.01 0.01 0.01 0.01 0.01 0.01 0.01 0.01 0.03 0.04 0.04 0.05 0.03 0.04 0.04 0.02 0.01 0.00 0.00 0.00 0.00 0.00 0.01 0.03 0.03 0.04 0.03 0.03 0.03 0.02 0.03 0.04
0.00 0.00 0.00 0.01 0.00 0.00 0.01 0.01 0.01 0.02 0.02 0.01 0.01 0.00 0.01 0.00 0.00 0.00 0.01 0.02 0.02 0.03 0.04 0.04 0.02 0.02 0.02 0.01 0.01 0.01 0.02 0.01 0.00 0.01 0.01 0.01 0.02 0.03 0.03 0.03 0.03 0.04 0.04
0.00 0.00 0.01 0.00 0.00 0.01 0.01 0.00 0.01 0.01 0.01 0.01 0.01 0.01 0.01 0.01 0.01 0.01 0.02 0.03 0.02 0.02 0.03 0.04 0.04 0.04 0.03 0.01 0.01 0.01 0.02 0.01 0.01 0.02 0.01 0.01 0.02 0.03 0.04 0.04 0.05 0.05 0.04
0.00 0.00 0.01 0.00 0.00 0.00 0.00 0.00 0.01 0.01 0.01 0.01 0.01 0.02 0.02 0.02 0.02 0.01 0.01 0.02 0.02 0.01 0.02 0.03 0.03 0.04 0.02 0.01 0.02 0.02 0.01 0.01 0.02 0.02 0.01 0.01 0.02 0.04 0.08 0.10 0.08 0.04 0.02
0.01 0.00 0.00 0.00 0.01 0.00 0.00 0.00 0.01 0.01 0.01 0.01 0.01 0.01 0.02 0.02 0.02 0.02 0.01 0.01 0.01 0.01 0.02 0.02 0.03 0.04 0.02 0.01 0.02 0.02 0.01 0.01 0.02 0.02 0.03 0.03 0.05 0.10 0.15 0.15 0.11 0.05 0.02
0.01 0.00 0.00 0.00 0.00 0.00 0.00 0.01 0.01 0.01 0.00 0.01 0.00 0.01 0.02 0.02 0.01 0.01 0.01 0.01 0.00 0.01 0.01 0.02 0.02 0.02 0.02 0.02 0.04 0.03 0.02 0.01 0.02 0.02 0.04 0.04 0.07 0.12 0.16 0.15 0.10 0.05 0.03
0.00 0.00 0.00 0.00 0.00 0.00 0.00 0.00 0.00 0.00 0.01 0.02 0.02 0.02 0.02 0.01 0.01 0.00 0.01 0.01 0.01 0.01 0.01 0.01 0.01 0.03 0.03 0.03 0.04 0.03 0.01 0.01 0.01 0.01 0.01 0.02 0.04 0.08 0.10 0.10 0.09 0.07 0.04
0.00 0.00 0.00 0.00 0.00 0.01 0.01 0.00 0.00 0.00 0.01 0.01 0.02 0.02 0.02 0.01 0.01 0.00 0.01 0.01 0.01 0.02 0.01 0.01 0.02 0.04 0.04 0.03 0.04 0.02 0.02 0.01 0.01 0.01 0.01 0.00 0.01 0.03 0.04 0.05 0.07 0.07 0.05
0.00 0.00 0.00 0.00 0.00 0.00 0.00 0.00 0.00 0.00 0.00 0.00 0.01 0.01 0.01 0.01 0.00 0.01 0.01 0.02 0.03 0.02 0.01 0.01 0.02 0.02 0.03 0.05 0.04 0.03 0.02 0.02 0.01 0.01 0.01 0.01 0.00 0.00 0.01 0.02 0.03 0.05 0.05
0.00 0.00 0.00 0.00 0.00 0.00 0.00 0.00 0.00 0.00 0.00 0.00 0.00 0.00 0.00 0.01 0.01 0.02 0.02 0.02 0.02 0.01 0.01 0.01 0.01 0.01 0.02 0.05 0.04 0.02 0.02 0.03 0.02 0.01 0.01 0.02 0.01 0.01 0.01 0.01 0.01 0.02 0.03
0.00 0.00 0.00 0.00 0.00 0.00 0.00 0.00 0.00 0.00 0.00 0.00 0.00 0.00 0.00 0.00 0.00 0.01 0.01 0.01 0.01 0.01 0.01 0.00 0.00 0.01 0.01 0.03 0.02 0.02 0.02 0.02 0.03 0.02 0.02 0.02 0.02 0.01 0.01 0.01 0.01 0.01 0.01
0.00 0.00 0.00 0.00 0.00 0.00 0.00 0.00 0.00 0.00 0.00 0.00 0.00 0.00 0.00 0.00 0.00 0.00 0.00 0.00 0.01 0.01 0.00 0.00 0.00 0.01 0.01 0.01 0.01 0.02 0.02 0.02 0.01 0.02 0.02 0.01 0.01 0.01 0.00 0.00 0.01 0.01 0.01
0.00 0.00 0.00 0.00 0.00 0.00 0.00 0.00 0.00 0.01 0.00 0.00 0.00 0.00 0.00 0.00 0.00 0.00 0.00 0.00 0.00 0.00 0.00 0.00 0.00 0.00 0.00 0.00 0.01 0.01 0.01 0.00 0.00 0.01 0.02 0.01 0.00 0.00 0.00 0.00 0.00 0.00 0.00
0.00 0.00 0.00 0.00 0.00 0.00 0.00 0.00 0.00 0.00 0.00 0.00 0.00 0.00 0.00 0.00 0.00 0.00 0.00 0.00 0.00 0.00 0.00 0.00 0.00 0.00 0.00 0.00 0.00 0.01 0.01 0.00 0.01 0.00 0.00 0.00 0.00 0.00 0.00 0.00 0.00 0.00 0.00
0.00 0.00 0.00 0.00 0.00 0.00 0.00 0.00 0.00 0.00 0.00 0.00 0.00 0.00 0.00 0.00 0.00 0.00 0.00 0.00 0.00 0.00 0.00 0.00 0.00 0.00 0.00 0.00 0.00 0.00 0.00 0.00 0.00 0.00 0.00 0.00 0.00 0.00 0.00 0.00 0.00 0.00 0.00
0.00 0.00 0.00 0.00 0.00 0.00 0.00 0.00 0.00 0.00 0.00 0.00 0.00 0.00 0.00 0.00 0.00 0.00 0.00 0.00 0.00 0.00 0.00 0.00 0.00 0.00 0.00 0.00 0.00 0.00 0.00 0.00 0.00 0.00 0.00 0.00 0.00 0.00 0.00 0.00 0.00 0.00 0.00
MSLP
1016.12 1016.08 1015.95 1015.77 1015.57 1015.39 1015.26 1015.18 1015.16 1015.16 1015.18 1015.18 1015.16 1015.14 1015.12 1015.15 1015.23 1015.39 1015.60 1015.83 1016.04 1016.19 1016.24 1016.16 1015.96 1015.67 1015.32 1014.98 1014.67 1014.42 1014.22 1014.01 1013.71 1013.25 1012.53 1011.48 1010.09 1008.40 1006.50 1004.55 1002.73 1001.26 1000.28
1016.19 1016.14 1016.03 1015.87 1015.72 1015.58 1015.50 1015.47 1015.49 1015.53 1015.57 1015.60 1015.59 1015.57 1015.55 1015.55 1015.61 1015.72 1015.88 1016.07 1016.25 1016.38 1016.41 1016.34 1016.15 1015.87 1015.54 1015.21 1014.92 1014.67 1014.46 1014.25 1013.95 1013.46 1012.70 1011.60 1010.15 1008.38 1006.39 1004.34 1002.44 1000.89 999.86
1016.26 1016.21 1016.11 1016.00 1015.90 1015.83 1015.81 1015.85 1015.93 1016.02 1016.11 1016.16 1016.18 1016.17 1016.14 1016.11 1016.11 1016.16 1016.25 1016.37 1016.48 1016.55 1016.56 1016.47 1016.28 1016.01 1015.70 1015.39 1015.11 1014.87 1014.67 1014.47 1014.17 1013.70 1012.96 1011.90 1010.48 1008.75 1006.80 1004.78 1002.90 1001.35 1000.30
1016.35 1016.28 1016.21 1016.14 1016.10 1016.10 1016.16 1016.26 1016.41 1016.56 1016.70 1016.80 1016.85 1016.84 1016.81 1016.75 1016.71 1016.68 1016.69 1016.71 1016.74 1016.75 1016.70 1016.58 1016.38 1016.12 1015.83 1015.54 1015.27 1015.05 1014.86 1014.67 1014.41 1013.99 1013.33 1012.37 1011.09 1009.51 1007.71 1005.84 1004.08 1002.61 1001.59
1016.46 1016.38 1016.31 1016.28 1016.30 1016.36 1016.48 1016.66 1016.86 1017.06 1017.25 1017.40 1017.48 1017.51 1017.48 1017.42 1017.33 1017.25 1017.18 1017.12 1017.06 1016.99 1016.88 1016.73 1016.52 1016.26 1015.98 1015.70 1015.45 1015.24 1015.06 1014.90 1014.68 1014.34 1013.80 1013.00 1011.92 1010.58 1009.03 1007.40 1005.85 1004.53 1003.59
1016.60 1016.50 1016.44 1016.43 1016.49 1016.60 1016.77 1016.98 1017.22 1017.46 1017.69 1017.88 1018.02 1018.08 1018.09 1018.04 1017.95 1017.84 1017.72 1017.59 1017.47 1017.33 1017.17 1016.98 1016.76 1016.50 1016.23 1015.96 1015.71 1015.50 1015.33 1015.18 1015.00 1014.74 1014.34 1013.73 1012.89 1011.83 1010.59 1009.26 1007.97 1006.85 1006.01
1016.78 1016.66 1016.60 1016.60 1016.67 1016.80 1016.98 1017.21 1017.46 1017.73 1017.98 1018.21 1018.39 1018.52 1018.58 1018.58 1018.53 1018.43 1018.29 1018.14 1017.97 1017.80 1017.60 1017.39 1017.15 1016.89 1016.62 1016.35 1016.10 1015.88 1015.70 1015.55 1015.40 1015.20 1014.91 1014.48 1013.87 1013.10 1012.17 1011.16 1010.16 1009.26 1008.57
1017.01 1016.87 1016.80 1016.80 1016.87 1016.99 1017.15 1017.36 1017.59 1017.85 1018.11 1018.37 1018.61 1018.80 1018.94 1019.02 1019.03 1018.98 1018.88 1018.74 1018.57 1018.38 1018.17 1017.95 1017.71 1017.45 1017.18 1016.90 1016.64 1016.40 1016.19 1016.01 1015.85 1015.68 1015.46 1015.17 1014.77 1014.24 1013.61 1012.89 1012.17 1011.49 1010.95
1017.30 1017.15 1017.06 1017.05 1017.09 1017.17 1017.30 1017.45 1017.64 1017.87 1018.12 1018.39 1018.67 1018.93 1019.16 1019.33 1019.44 1019.47 1019.44 1019.35 1019.21 1019.04 1018.84 1018.63 1018.39 1018.14 1017.87 1017.58 1017.30 1017.02 1016.76 1016.54 1016.34 1016.16 1015.98 1015.76 1015.50 1015.16 1014.75 1014.29 1013.80 1013.34 1012.94
1017.64 1017.48 1017.39 1017.35 1017.35 1017.39 1017.45 1017.54 1017.66 1017.83 1018.05 1018.32 1018.63 1018.95 1019.25 1019.52 1019.73 1019.86 1019.92 1019.89 1019.81 1019.68 1019.52 1019.33 1019.11 1018.88 1018.61 1018.32 1018.02 1017.70 1017.40 1017.11 1016.86 1016.63 1016.44 1016.26 1016.07 1015.85 1015.60 1015.32 1015.02 1014.72 1014.45
1018.01 1017.86 1017.75 1017.69 1017.66 1017.64 1017.63 1017.64 1017.69 1017.80 1017.97 1018.22 1018.53 1018.89 1019.26 1019.61 1019.90 1020.12 1020.26 1020.31 1020.29 1020.22 1020.10 1019.95 1019.77 1019.56 1019.32 1019.04 1018.72 1018.39 1018.04 1017.70 1017.39 1017.12 1016.89 1016.70 1016.53 1016.38 1016.22 1016.05 1015.88 1015.70 1015.53
1018.39 1018.25 1018.15 1018.07 1018.00 1017.93 1017.86 1017.81 1017.78 1017.82 1017.94 1018.15 1018.44 1018.80 1019.20 1019.60 1019.95 1020.24 1020.44 1020.56 1020.60 1020.58 1020.52 1020.42 1020.28 1020.12 1019.91 1019.66 1019.36 1019.02 1018.66 1018.29 1017.94 1017.63 1017.36 1017.15 1016.98 1016.85 1016.74 1016.63 1016.52 1016.42 1016.32
1018.75 1018.63 1018.54 1018.45 1018.37 1018.26 1018.15 1018.04 1017.95 1017.93 1017.99 1018.15 1018.41 1018.75 1019.14 1019.54 1019.92 1020.23 1020.48 1020.64 1020.72 1020.75 1020.74 1020.70 1020.62 1020.51 1020.36 1020.16 1019.90 1019.59 1019.25 1018.89 1018.53 1018.20 1017.92 1017.70 1017.52 1017.39 1017.29 1017.21 1017.13 1017.06 1016.99
1019.06 1018.97 1018.90 1018.83 1018.74 1018.62 1018.49 1018.34 1018.22 1018.15 1018.16 1018.27 1018.48 1018.78 1019.13 1019.50 1019.85 1020.16 1020.40 1020.58 1020.70 1020.77 1020.80 1020.81 1020.80 1020.76 1020.68 1020.54 1020.35 1020.11 1019.81 1019.49 1019.17 1018.86 1018.59 1018.37 1018.20 1018.08 1017.98 1017.90 1017.83 1017.76 1017.70
1019.33 1019.27 1019.22 1019.17 1019.10 1019.00 1018.87 1018.73 1018.59 1018.50 1018.48 1018.54 1018.69 1018.92 1019.21 1019.52 1019.82 1020.09 1020.31 1020.48 1020.60 1020.70 1020.77 1020.84 1020.89 1020.92 1020.91 1020.86 1020.75 1020.58 1020.36 1020.11 1019.84 1019.58 1019.36 1019.17 1019.03 1018.92 1018.83 1018.75 1018.67 1018.59 1018.51
1019.53 1019.52 1019.50 1019.49 1019.45 1019.39 1019.29 1019.17 1019.05 1018.96 1018.92 1018.95 1019.05 1019.22 1019.43 1019.66 1019.89 1020.10 1020.27 1020.41 1020.53 1020.64 1020.75 1020.86 1020.97 1021.06 1021.13 1021.15 1021.12 1021.03 1020.89 1020.71 1020.52 1020.34 1020.17 1020.04 1019.93 1019.85 1019.78 1019.70 1019.62 1019.52 1019.41
1019.70 1019.72 1019.75 1019.78 1019.80 1019.78 1019.73 1019.66 1019.58 1019.51 1019.48 1019.49 1019.54 1019.65 1019.79 1019.94 1020.09 1020.23 1020.35 1020.46 1020.57 1020.68 1020.81 1020.95 1021.10 1021.25 1021.37 1021.46 1021.49 1021.46 1021.39 1021.28 1021.16 1021.04 1020.93 1020.85 1020.79 1020.75 1020.70 1020.64 1020.56 1020.45 1020.32
1019.83 1019.89 1019.97 1020.06 1020.12 1020.17 1020.18 1020.16 1020.13 1020.10 1020.08 1020.08 1020.11 1020.17 1020.25 1020.33 1020.41 1020.49 1020.56 1020.64 1020.72 1020.84 1020.97 1021.14 1021.32 1021.50 1021.65 1021.77 1021.84 1021.86 1021.82 1021.76 1021.68 1021.61 1021.55 1021.51 1021.50 1021.48 1021.47 1021.42 1021.35 1021.24 1021.10
1019.95 1020.06 1020.18 1020.31 1020.43 1020.53 1020.60 1020.64 1020.65 1020.65 1020.66 1020.67 1020.69 1020.71 1020.75 1020.78 1020.81 1020.83 1020.86 1020.91 1020.98 1021.09 1021.23 1021.40 1021.59 1021.77 1021.94 1022.07 1022.14 1022.17 1022.15 1022.10 1022.04 1021.98 1021.95 1021.94 1021.95 1021.96 1021.97 1021.95 1021.89 1021.80 1021.67
1020.06 1020.21 1020.37 1020.54 1020.70 1020.84 1020.95 1021.03 1021.08 1021.12 1021.14 1021.16 1021.18 1021.20 1021.20 1021.21 1021.20 1021.19 1021.20 1021.22 1021.28 1021.37 1021.50 1021.67 1021.85 1022.03 1022.18 1022.29 1022.35 1022.36 1022.33 1022.27 1022.20 1022.14 1022.11 1022.11 1022.12 1022.15 1022.18 1022.18 1022.14 1022.07 1021.97
1020.15 1020.34 1020.53 1020.73 1020.91 1021.07 1021.20 1021.31 1021.38 1021.44 1021.48 1021.51 1021.53 1021.55 1021.55 1021.54 1021.52 1021.50 1021.49 1021.49 1021.54 1021.62 1021.73 1021.88 1022.04 1022.19 1022.32 1022.41 1022.44 1022.42 1022.36 1022.28 1022.19 1022.12 1022.08 1022.06 1022.08 1022.11 1022.14 1022.16 1022.14 1022.10 1022.03
1020.22 1020.43 1020.65 1020.86 1021.05 1021.21 1021.34 1021.45 1021.52 1021.58 1021.63 1021.68 1021.71 1021.74 1021.75 1021.74 1021.73 1021.70 1021.68 1021.68 1021.71 1021.77 1021.87 1021.99 1022.12 1022.24 1022.34 1022.39 1022.40 1022.36 1022.28 1022.18 1022.08 1021.99 1021.93 1021.91 1021.92 1021.94 1021.97 1021.99 1022.00 1021.97 1021.94
1020.24 1020.48 1020.71 1020.92 1021.10 1021.25 1021.36 1021.45 1021.51 1021.57 1021.63 1021.68 1021.73 1021.78 1021.81 1021.82 1021.82 1021.81 1021.79 1021.78 1021.79 1021.83 1021.90 1021.99 1022.09 1022.18 1022.25 1022.28 1022.27 1022.22 1022.14 1022.03 1021.93 1021.84 1021.78 1021.75 1021.75 1021.77 1021.80 1021.82 1021.83 1021.82 1021.80
1020.19 1020.44 1020.68 1020.89 1021.05 1021.18 1021.26 1021.33 1021.38 1021.44 1021.50 1021.57 1021.64 1021.72 1021.78 1021.82 1021.84 1021.85 1021.84 1021.82 1021.82 1021.83 1021.87 1021.92 1021.98 1022.05 1022.10 1022.12 1022.11 1022.07 1022.00 1021.92 1021.83 1021.76 1021.72 1021.70 1021.70 1021.72 1021.74 1021.75 1021.75 1021.74 1021.71
1020.05 1020.32 1020.57 1020.76 1020.91 1021.02 1021.09 1021.13 1021.18 1021.24 1021.31 1021.41 1021.52 1021.63 1021.73 1021.81 1021.87 1021.89 1021.89 1021.87 1021.85 1021.84 1021.84 1021.86 1021.89 1021.92 1021.96 1021.98 1021.98 1021.96 1021.92 1021.88 1021.83 1021.80 1021.78 1021.78 1021.79 1021.80 1021.82 1021.82 1021.81 1021.78 1021.73
1019.82 1020.11 1020.36 1020.56 1020.70 1020.79 1020.85 1020.90 1020.95 1021.02 1021.12 1021.26 1021.41 1021.57 1021.72 1021.85 1021.94 1021.99 1022.00 1021.98 1021.94 1021.90 1021.87 1021.85 1021.85 1021.87 1021.88 1021.90 1021.92 1021.93 1021.93 1021.92 1021.92 1021.93 1021.94 1021.96 1021.98 1022.00 1022.01 1022.00 1021.96 1021.90 1021.83
Thickness
5733 5732 5730 5728 5727 5726 5724 5723 5722 5722 5721 5719 5718 5717 5716 5715 5715 5715 5716 5717 5719 5721 5723 5725 5727 5729 5731 5734 5737 5739 5742 5744 5746 5749 5751 5754 5757 5760 5764 5767 5769 5770 5772
5732 5730 5728 5726 5725 5724 5722 5721 5720 5718 5717 5716 5715 5714 5712 5712 5711 5711 5712 5713 5715 5716 5718 5720 5723 5725 5728 5730 5733 5736 5738 5741 5743 5745 5748 5750 5754 5758 5762 5764 5766 5767 5769
5731 5729 5726 5724 5723 5722 5720 5718 5717 5716 5714 5712 5711 5710 5710 5709 5708 5708 5708 5709 5710 5712 5714 5716 5718 5721 5724 5726 5729 5732 5734 5737 5740 5742 5744 5747 5750 5754 5757 5759 5761 5763 5765
5729 5727 5725 5723 5722 5720 5718 5716 5714 5711 5709 5708 5707 5707 5707 5706 5705 5705 5705 5706 5707 5708 5709 5711 5714 5716 5719 5721 5724 5727 5730 5733 5735 5738 5741 5743 5745 5749 5751 5753 5756 5758 5760
5727 5725 5723 5721 5720 5718 5716 5714 5711 5709 5705 5704 5704 5704 5704 5703 5703 5703 5703 5703 5704 5705 5706 5707 5710 5712 5714 5717 5719 5722 5725 5728 5731 5734 5737 5739 5740 5743 5745 5747 5749 5752 5754
5725 5724 5721 5719 5718 5716 5713 5711 5708 5707 5704 5703 5703 5700 5700 5700 5700 5701 5700 5700 5701 5702 5703 5704 5706 5708 5709 5712 5714 5717 5720 5723 5726 5729 5732 5734 5735 5737 5739 5741 5743 5745 5747
5723 5722 5720 5718 5716 5713 5711 5709 5707 5704 5702 5702 5698 5694 5695 5696 5696 5697 5697 5698 5698 5699 5700 5701 5702 5704 5705 5707 5709 5712 5715 5718 5721 5724 5726 5728 5729 5731 5733 5735 5737 5739 5741
5722 5721 5718 5716 5714 5712 5710 5708 5706 5702 5700 5701 5697 5690 5686 5687 5690 5693 5694 5695 5695 5697 5697 5698 5699 5700 5701 5703 5705 5707 5710 5713 5715 5718 5720 5721 5722 5724 5726 5728 5731 5733 5734
5720 5719 5717 5715 5714 5712 5708 5707 5706 5703 5699 5699 5699 5694 5685 5681 5684 5687 5689 5691 5692 5693 5694 5695 5695 5696 5697 5699 5700 5702 5704 5707 5709 5711 5713 5715 5716 5718 5719 5721 5724 5726 5728
5718 5718 5716 5715 5713 5711 5709 5707 5706 5704 5702 5698 5698 5698 5695 5692 5685 5681 5684 5687 5689 5690 5690 5692 5692 5692 5694 5695 5696 5697 5699 5701 5703 5706 5707 5709 5711 5712 5713 5715 5717 5719 5721
5717 5716 5715 5714 5712 5710 5709 5707 5706 5705 5703 5700 5698 5697 5695 5693 5691 5684 5680 5682 5684 5686 5687 5688 5689 5689 5690 5691 5692 5693 5694 5695 5697 5699 5701 5703 5704 5706 5707 5709 5711 5713 5715
5714 5714 5714 5713 5711 5710 5708 5707 5706 5705 5704 5702 5701 5699 5697 5694 5690 5687 5682 5679 5679 5682 5684 5686 5686 5687 5687 5687 5687 5688 5689 5690 5692 5693 5695 5697 5699 5700 5702 5703 5705 5707 5708
5711 5712 5712 5711 5710 5709 5708 5707 5706 5704 5704 5702 5701 5699 5699 5697 5695 5691 5686 5681 5679 5679 5682 5683 5684 5684 5684 5684 5684 5684 5685 5686 5687 5688 5689 5691 5693 5694 5696 5697 5699 5701 5702
5712 5712 5711 5710 5709 5709 5708 5707 5705 5704 5703 5702 5701 5700 5698 5697 5697 5694 5690 5684 5678 5676 5678 5679 5682 5683 5683 5682 5682 5682 5682 5683 5683 5684 5685 5686 5688 5689 5690 5692 5693 5695 5697
5712 5711 5710 5709 5709 5708 5707 5706 5704 5703 5702 5701 5700 5699 5698 5697 5696 5695 5693 5690 5683 5675 5674 5677 5679 5681 5681 5681 5680 5680 5680 5680 5680 5681 5682 5682 5683 5684 5685 5686 5687 5690 5691
5712 5710 5709 5708 5707 5707 5706 5705 5703 5701 5700 5699 5698 5697 5696 5695 5694 5694 5692 5690 5688 5682 5676 5677 5678 5680 5680 5679 5679 5678 5678 5678 5678 5678 5678 5678 5679 5680 5680 5681 5682 5684 5685
5710 5709 5708 5707 5706 5705 5704 5703 5701 5700 5698 5697 5696 5695 5694 5694 5692 5692 5691 5689 5687 5685 5679 5677 5678 5679 5678 5677 5677 5676 5676 5675 5675 5675 5675 5675 5675 5675 5676 5676 5677 5678 5678
5710 5709 5708 5706 5705 5704 5703 5702 5700 5698 5697 5695 5694 5693 5692 5692 5690 5689 5688 5687 5685 5684 5681 5676 5676 5676 5676 5675 5675 5674 5673 5672 5672 5671 5671 5671 5671 5671 5671 5671 5672 5672 5672
5708 5707 5706 5705 5704 5703 5701 5700 5699 5697 5695 5693 5692 5691 5690 5689 5687 5687 5686 5684 5683 5682 5680 5677 5674 5673 5673 5673 5671 5671 5670 5669 5669 5668 5667 5667 5667 5667 5667 5666 5666 5666 5665
5706 5705 5704 5703 5702 5701 5700 5699 5697 5695 5693 5692 5691 5689 5688 5688 5686 5685 5684 5682 5681 5678 5676 5674 5671 5670 5669 5669 5668 5666 5665 5665 5665 5665 5664 5663 5662 5662 5662 5661 5660 5660 5659
5704 5702 5701 5700 5700 5699 5698 5697 5695 5693 5690 5689 5688 5687 5687 5686 5686 5685 5683 5680 5678 5675 5672 5670 5667 5665 5664 5664 5663 5662 5660 5659 5659 5659 5659 5658 5658 5657 5656 5656 5654 5653 5653
5700 5699 5698 5697 5696 5697 5697 5696 5694 5691 5689 5686 5685 5684 5683 5683 5683 5683 5682 5680 5678 5674 5671 5668 5664 5662 5661 5661 5660 5659 5655 5653 5652 5654 5653 5653 5653 5652 5651 5650 5649 5648 5646
5696 5695 5694 5694 5693 5693 5694 5693 5691 5689 5686 5684 5682 5681 5681 5680 5679 5678 5677 5677 5675 5674 5672 5669 5664 5662 5661 5660 5658 5655 5652 5650 5648 5649 5648 5646 5646 5645 5646 5645 5644 5642 5640
5693 5691 5690 5690 5690 5690 5691 5690 5688 5685 5683 5681 5680 5679 5678 5676 5676 5674 5673 5671 5670 5669 5669 5667 5665 5663 5662 5660 5656 5654 5651 5647 5645 5645 5643 5640 5639 5638 5640 5638 5637 5635 5633
5690 5689 5688 5687 5686 5686 5687 5686 5684 5681 5679 5677 5677 5676 5675 5674 5673 5672 5669 5667 5665 5664 5664 5663 5662 5660 5659 5656 5654 5650 5645 5641 5638 5638 5637 5634 5632 5631 5631 5630 5629 5627 5625
5687 5686 5684 5683 5683 5683 5683 5683 5681 5678 5674 5673 5672 5672 5672 5670 5670 5668 5665 5662 5659 5658 5658 5657 5656 5654 5652 5651 5649 5646 5642 5636 5632 5630 5631 5628 5625 5623 5622 5623 5622 5620 5617